Kozani, Greece

3:08 AM EET on March 24, 2017 (GMT +0200)
Filippos

Weather History for LGKZ - January, 2014

Change the Weather History Date:

Sunday, January 5, 2014

  Actual Average Record
Temperature  
Mean Temperature 38 °F -  
Max Temperature 44 °F - - ()
Min Temperature 32 °F - - ()
Degree Days  
Heating Degree Days 27    
Moisture  
Dew Point 35 °F    
Average Humidity 91    
Maximum Humidity 100    
Minimum Humidity 76    
Precipitation  
Precipitation 0.00 in - - ()
Sea Level Pressure  
Sea Level Pressure 30.14 in    
Wind  
Wind Speed 2 mph ()    
Max Wind Speed 6 mph    
Max Gust Speed -    
Visibility 5.7 miles    
Events Rain    
T = Trace of Precipitation, MM = Missing Value Source: Averaged Metar Reports

Daily Weather History Graph

Daily Weather History Graph

Search for Another Location

Airport or City:

Trip Planner

Search our weather history database for the weather conditions in past years. The results will help you decide how hot, cold, wet, or windy it might be!

Date:

Astronomy

Jan. 05, 2014 Rise Set
Actual Time 7:55 AM EET 5:20 PM EET
Civil Twilight 7:25 AM EET 5:51 PM EET
Nautical Twilight 6:51 AM EET 6:25 PM EET
Astronomical Twilight 6:18 AM EET 6:58 PM EET
Moon 10:25 AM EET (1/5) 10:28 PM EET (1/5)
Length of Visible Light 10h 25m
Length of Day
9h 24m
Waxing Crescent, 21% of the Moon is Illuminated
Jan 5
Waxing Crescent
Jan 8
First Quarter
Jan 16
Full
Jan 24
Last Quarter
Jan 30
New

Hourly Weather History & Observations

Time (EET) Temp. Windchill Dew Point Humidity Pressure Visibility Wind Dir Wind Speed Gust Speed Precip Events Conditions
12:20 AM 35.6 °F - 32.0 °F 87% 30.21 in - Variable 1.2 mph - N/A   Unknown
12:50 AM 33.8 °F - 32.0 °F 93% 30.21 in - Variable 1.2 mph - N/A   Unknown
1:20 AM 33.8 °F - 32.0 °F 93% 30.21 in - Variable 2.3 mph - N/A   Unknown
1:50 AM 32.0 °F - 30.2 °F 93% 30.18 in - Variable 2.3 mph - N/A   Unknown
2:20 AM 35.6 °F - 33.8 °F 93% 30.18 in - Variable 1.2 mph - N/A   Unknown
2:50 AM 33.8 °F 28.6 °F 32.0 °F 93% 30.18 in - North 5.8 mph - N/A   Unknown
3:20 AM 35.6 °F 31.7 °F 32.0 °F 87% 30.18 in - North 4.6 mph - N/A   Unknown
3:50 AM 33.8 °F 30.8 °F 32.0 °F 93% 30.18 in - Variable 3.5 mph - N/A   Unknown
4:20 AM 33.8 °F - 32.0 °F 93% 30.18 in - Variable 2.3 mph - N/A   Unknown
4:50 AM 32.0 °F - 30.2 °F 93% 30.18 in - Variable 1.2 mph - N/A   Unknown
5:20 AM 32.0 °F 28.7 °F 32.0 °F 100% 30.18 in - Variable 3.5 mph - N/A   Unknown
5:50 AM 32.0 °F - 30.2 °F 93% 30.18 in - Variable 2.3 mph - N/A   Unknown
6:20 AM 32.0 °F - 32.0 °F 100% 30.18 in - Variable 2.3 mph - N/A   Unknown
6:50 AM 33.8 °F - 32.0 °F 93% 30.15 in - Variable 2.3 mph - N/A   Unknown
7:20 AM 32.0 °F 28.7 °F 32.0 °F 100% 30.15 in - Variable 3.5 mph - N/A   Unknown
7:50 AM 33.8 °F 29.6 °F 32.0 °F 93% 30.15 in - East 4.6 mph - N/A   Unknown
8:20 AM 33.8 °F 30.8 °F 32.0 °F 93% 30.15 in - Variable 3.5 mph - N/A   Unknown
8:50 AM 35.6 °F - 32.0 °F 87% 30.15 in - Variable 2.3 mph - N/A   Unknown
9:20 AM 37.4 °F - 35.6 °F 93% 30.15 in - Variable 1.2 mph - N/A   Unknown
9:50 AM 39.2 °F - 35.6 °F 87% 30.15 in - Variable 2.3 mph - N/A   Unknown
10:20 AM 35.6 °F 31.7 °F 33.8 °F 93% 30.15 in - East 4.6 mph - N/A   Unknown
10:50 AM 37.4 °F - 35.6 °F 93% 30.15 in - Variable 1.2 mph - N/A   Unknown
11:20 AM 42.8 °F 41.1 °F 37.4 °F 81% 30.15 in - Variable 3.5 mph - N/A   Unknown
11:50 AM 42.8 °F 41.1 °F 37.4 °F 81% 30.12 in - Variable 3.5 mph - N/A   Unknown
12:20 PM 44.6 °F - 37.4 °F 76% 30.12 in - Variable 2.3 mph - N/A   Unknown
12:50 PM 41.0 °F 38.0 °F 37.4 °F 87% 30.12 in 6.2 mi ESE 4.6 mph - N/A   Mostly Cloudy
1:50 PM 41.0 °F - 37.4 °F 87% 30.09 in 5.6 mi Calm Calm - N/A   Scattered Clouds
2:50 PM 42.8 °F - 37.4 °F 81% 30.09 in 5.6 mi Calm Calm - N/A   Scattered Clouds
3:50 PM 41.0 °F - 39.2 °F 93% 30.09 in 5.6 mi Calm Calm - N/A   Scattered Clouds
4:50 PM 41.0 °F - 37.4 °F 87% 30.09 in 5.6 mi Calm Calm - N/A   Mostly Cloudy
5:50 PM 41.0 °F - 37.4 °F 87% 30.09 in 5.6 mi Calm Calm - N/A   Mostly Cloudy
6:50 PM 41.0 °F - 37.4 °F 87% 30.09 in 5.6 mi Calm Calm - N/A   Mostly Cloudy
7:50 PM 41.0 °F - 37.4 °F 87% 30.09 in 5.6 mi Calm Calm - N/A   Mostly Cloudy
8:20 PM 41.0 °F - 37.4 °F 87% 30.09 in - Variable 2.3 mph - N/A   Unknown
8:50 PM 39.2 °F - 37.4 °F 93% 30.09 in - Variable 2.3 mph - N/A   Unknown
9:20 PM 39.2 °F - 37.4 °F 93% 30.09 in - Variable 2.3 mph - N/A   Unknown
9:50 PM 39.2 °F - 37.4 °F 93% 30.09 in - Variable 2.3 mph - N/A   Unknown
10:20 PM 39.2 °F - 37.4 °F 93% 30.09 in - Variable 1.2 mph - N/A   Unknown
10:50 PM 39.2 °F - 37.4 °F 93% 30.09 in - Variable 2.3 mph - N/A   Unknown
11:20 PM 39.2 °F - 37.4 °F 93% 30.06 in - Variable 1.2 mph - N/A   Unknown
11:50 PM 39.2 °F - 37.4 °F 93% 30.06 in - Variable 2.3 mph - N/A Rain Light Rain